FENGYUN 2F

Last updated on Nov. 14, 2019, 4:21 a.m. UTC

1 38049U 12002A   19317.17426541 -.00000342  00000-0  00000+0 0  9999
2 38049   1.5678  83.1219 0001445 304.1603 199.5831  1.00266907 28746
UTC
Height (km)
Latitude
Longitude
Inclination
Orbital Period
UTC large
Height (km)
Speed (km/s)
/
Latitude / Longitude
Inclination (degrees)
Orbital Period (minutes)
Azimuth
Elevation
Range (km)
Doppler Factor
iOS Compass Heading
iOS Angle

Next 30 passes for location: Hong Kong

Rise time Rise Azimuth (degrees) Set time Set Azimuth (degrees) Duration Max altitude (degrees)

No matching passes for this satellites